Frenchville, ME

6:50 PM EDT on March 22, 2017 (GMT -0400)
Northern Aroostook Regional

Weather History for KFVE - November, 2011

Change the Weather History Date:

Friday, November 11, 2011

  Actual Average Record
Temperature  
Mean Temperature 41 °F 32 °F  
Max Temperature 52 °F 38 °F 63 °F (2002)
Min Temperature 30 °F 26 °F 15 °F (1999)
Degree Days  
Heating Degree Days 24    
Month to date heating degree days 273  
Since 1 July heating degree days 1289  
Cooling Degree Days 0    
Month to date cooling degree days 0  
Year to date cooling degree days 87  
Moisture  
Dew Point 39 °F    
Average Humidity 92    
Maximum Humidity 100    
Minimum Humidity 72    
Precipitation  
Precipitation 0.59 in 0.09 in 0.59 in (2011)
Month to date precipitation 1.22 1.01  
Year to date precipitation 38.52 29.13  
Sea Level Pressure  
Sea Level Pressure 29.32 in    
Wind  
Wind Speed 15 mph (NW)    
Max Wind Speed 25 mph    
Max Gust Speed 33 mph    
Visibility 6 miles    
Events Rain , Snow    
T = Trace of Precipitation, MM = Missing Value Source: NWS Daily Summary

Daily Weather History Graph

Daily Weather History Graph

Search for Another Location

Airport or City:

Trip Planner

Search our weather history database for the weather conditions in past years. The results will help you decide how hot, cold, wet, or windy it might be!

Date:

Astronomy

Nov. 11, 2011 Rise Set
Actual Time 6:31 AM EST 4:02 PM EST
Civil Twilight 5:58 AM EST 4:35 PM EST
Nautical Twilight 5:21 AM EST 5:12 PM EST
Astronomical Twilight 4:45 AM EST 5:48 PM EST
Moon 4:22 PM EST (11/11) 7:22 AM EST (11/11)
Length of Visible Light 10h 37m
Length of Day
9h 31m
Full, 99% of the Moon is Illuminated
Nov 11
Full
Nov 18
Last Quarter
Nov 25
New
Dec 2
First Quarter
Dec 10
Full

Hourly Weather History & Observations

Time (EST) Temp. Windchill Dew Point Humidity Pressure Visibility Wind Dir Wind Speed Gust Speed Precip Events Conditions
12:00 AM 50.0 °F - 50.0 °F 100% 29.52 in 2.5 mi East 6.9 mph - 0.01 in Rain Light Rain
12:49 AM 51.8 °F - 51.8 °F 100% 29.46 in 1.8 mi East 9.2 mph - 0.06 in Rain Rain
12:53 AM 51.1 °F - 51.1 °F 100% 29.46 in 1.8 mi East 8.1 mph - 0.06 in Rain Rain
1:01 AM 51.8 °F - 51.8 °F 100% 29.44 in 2.0 mi East 10.4 mph - 0.02 in Rain Rain
1:16 AM 51.8 °F - 51.8 °F 100% 29.43 in 4.0 mi East 8.1 mph - 0.03 in Rain Light Rain
1:28 AM 51.8 °F - 51.8 °F 100% 29.42 in 1.8 mi ESE 5.8 mph - 0.04 in Rain Light Rain
1:36 AM 51.8 °F - 51.8 °F 100% 29.42 in 1.5 mi East 4.6 mph - 0.05 in Rain Light Rain
1:48 AM 51.8 °F - 51.8 °F 100% 29.41 in 1.2 mi East 5.8 mph - 0.09 in Rain Heavy Rain
1:53 AM 51.1 °F - 51.1 °F 100% 29.41 in 1.2 mi East 4.6 mph - 0.10 in Rain Rain
2:18 AM 51.8 °F - 51.8 °F 100% 29.39 in 1.8 mi ENE 3.5 mph - 0.03 in Rain Rain
2:27 AM 51.8 °F - 51.8 °F 100% 29.38 in 1.5 mi Calm Calm - 0.04 in Rain Light Rain
2:40 AM 51.8 °F - 51.8 °F 100% 29.37 in 1.0 mi Calm Calm - 0.05 in Rain Light Rain
2:53 AM 52.0 °F - 52.0 °F 100% 29.37 in 0.8 mi Calm Calm - 0.08 in Rain Rain
3:08 AM 51.8 °F - 51.8 °F 100% 29.36 in 1.2 mi NW 6.9 mph - 0.02 in Rain Rain
3:15 AM 51.8 °F - 51.8 °F 100% 29.36 in 1.5 mi NW 6.9 mph - 0.03 in Rain Light Rain
3:30 AM 46.4 °F 39.8 °F 46.4 °F 100% 29.36 in 1.2 mi NW 16.1 mph - 0.06 in Rain Light Rain
3:51 AM 44.6 °F 36.4 °F 44.6 °F 100% 29.35 in 2.0 mi NW 20.7 mph 27.6 mph 0.08 in   Overcast
3:53 AM 44.6 °F 35.9 °F 44.6 °F 100% 29.35 in 2.0 mi NW 23.0 mph 27.6 mph N/A   Overcast
4:24 AM 44.6 °F 36.9 °F 42.8 °F 93% 29.35 in 2.5 mi NW 18.4 mph 28.8 mph N/A   Overcast
4:53 AM 43.0 °F 34.8 °F 42.1 °F 97% 29.34 in 2.5 mi NW 18.4 mph 25.3 mph 0.02 in Rain Rain
5:00 AM 42.8 °F 34.3 °F 42.8 °F 100% 29.34 in 3.0 mi NW 19.6 mph 28.8 mph 0.00 in Rain Rain
5:53 AM 41.0 °F 32.5 °F 39.9 °F 96% 29.36 in 4.0 mi NW 17.3 mph 25.3 mph 0.12 in Rain Rain
6:53 AM 39.2 °F 29.3 °F 39.2 °F 100% 29.31 in 3.0 mi NNW 20.7 mph 26.5 mph N/A Rain Rain
7:23 AM 39.2 °F 30.2 °F 39.2 °F 100% 29.31 in 2.5 mi NNW 17.3 mph 23.0 mph 0.04 in Rain Rain
7:32 AM 41.0 °F 33.5 °F 39.2 °F 93% 29.32 in 4.0 mi NNW 13.8 mph 23.0 mph 0.04 in Rain Light Rain
7:53 AM 41.0 °F 35.2 °F 39.9 °F 96% 29.32 in 6.0 mi NNW 9.2 mph - 0.05 in Rain Light Rain
8:00 AM 39.2 °F 33.0 °F 39.2 °F 100% 29.31 in 6.0 mi NNW 9.2 mph - 0.01 in Rain Light Rain
8:38 AM 39.2 °F 31.2 °F 39.2 °F 100% 29.26 in 7.0 mi NNW 13.8 mph - 0.01 in Rain Light Rain
8:53 AM 39.9 °F 31.4 °F 39.0 °F 97% 29.28 in 9.0 mi NW 16.1 mph 23.0 mph 0.01 in   Overcast
9:20 AM 39.2 °F 31.2 °F 39.2 °F 100% 29.26 in 8.0 mi NW 13.8 mph 21.9 mph N/A   Overcast
9:53 AM 39.2 °F 31.2 °F 37.4 °F 93% 29.26 in 4.0 mi NW 13.8 mph - N/A   Overcast
10:53 AM 37.9 °F 28.9 °F 37.0 °F 97% 29.25 in 9.0 mi NW 16.1 mph 25.3 mph N/A   Overcast
11:02 AM 37.4 °F 27.2 °F 35.6 °F 93% 29.24 in 10.0 mi NW 19.6 mph 28.8 mph N/A   Overcast
11:19 AM 37.4 °F 26.9 °F 35.6 °F 93% 29.24 in 10.0 mi NW 20.7 mph 25.3 mph N/A   Overcast
11:53 AM 37.9 °F 28.9 °F 36.0 °F 93% 29.24 in 10.0 mi NW 16.1 mph 31.1 mph N/A   Overcast
12:40 PM 37.4 °F 28.2 °F 35.6 °F 93% 29.25 in 10.0 mi NNW 16.1 mph 28.8 mph N/A   Overcast
12:53 PM 37.9 °F 28.2 °F 34.0 °F 86% 29.24 in 10.0 mi NNW 18.4 mph 29.9 mph N/A   Overcast
1:04 PM 37.4 °F 27.8 °F 35.6 °F 93% 29.24 in 10.0 mi NW 17.3 mph 28.8 mph N/A   Overcast
1:20 PM 37.4 °F 26.6 °F 33.8 °F 87% 29.24 in 10.0 mi NW 21.9 mph 29.9 mph N/A   Overcast
1:53 PM 37.9 °F 29.2 °F 34.0 °F 86% 29.24 in 10.0 mi NW 15.0 mph - N/A   Overcast
2:53 PM 37.0 °F 28.5 °F 34.0 °F 89% 29.26 in 5.0 mi NW 13.8 mph 24.2 mph 0.01 in Rain Light Rain
3:29 PM 35.6 °F 25.2 °F 33.8 °F 93% 29.25 in 8.0 mi NW 18.4 mph 26.5 mph 0.00 in   Overcast
3:53 PM 36.0 °F 26.0 °F 33.1 °F 89% 29.27 in 9.0 mi NW 17.3 mph 25.3 mph 0.00 in   Overcast
4:20 PM 35.6 °F 25.5 °F 32.0 °F 87% 29.24 in 10.0 mi NW 17.3 mph 28.8 mph 0.00 in   Overcast
4:28 PM 35.6 °F 27.1 °F 32.0 °F 87% 29.25 in 10.0 mi NW 12.7 mph 28.8 mph 0.00 in   Overcast
4:51 PM 35.6 °F 27.1 °F 30.2 °F 81% 29.25 in 10.0 mi NW 12.7 mph 21.9 mph 0.00 in   Overcast
4:53 PM 36.0 °F 27.5 °F 30.9 °F 82% 29.26 in 10.0 mi NW 12.7 mph 21.9 mph 0.00 in   Overcast
5:53 PM 33.1 °F 21.2 °F 30.0 °F 89% 29.28 in 2.5 mi NW 20.7 mph 31.1 mph 0.00 in Snow Light Snow
6:02 PM 33.8 °F 23.9 °F 30.2 °F 87% 29.25 in 1.5 mi NW 15.0 mph - 0.00 in Snow Light Snow
6:12 PM 33.8 °F 24.3 °F 30.2 °F 87% 29.26 in 2.0 mi WNW 13.8 mph 25.3 mph 0.00 in Snow Light Snow
6:22 PM 33.8 °F 23.9 °F 30.2 °F 87% 29.27 in 3.0 mi WNW 15.0 mph 21.9 mph 0.00 in Snow Light Snow
6:53 PM 33.1 °F 24.4 °F 28.9 °F 85% 29.29 in 10.0 mi NW 11.5 mph - 0.00 in   Overcast
7:43 PM 33.8 °F 21.9 °F 26.6 °F 75% 29.28 in 10.0 mi NW 21.9 mph 27.6 mph N/A   Overcast
7:53 PM 33.1 °F 23.4 °F 26.1 °F 75% 29.30 in 10.0 mi WNW 13.8 mph 25.3 mph N/A   Overcast
8:53 PM 32.0 °F 20.5 °F 24.1 °F 73% 29.33 in 10.0 mi WNW 18.4 mph 25.3 mph N/A   Overcast
9:32 PM 30.2 °F 17.4 °F 23.0 °F 75% 29.31 in 10.0 mi WNW 20.7 mph 27.6 mph N/A   Overcast
9:53 PM 30.9 °F 20.2 °F 24.1 °F 76% 29.34 in 10.0 mi WNW 15.0 mph - N/A   Overcast
10:53 PM 30.9 °F 19.8 °F 23.0 °F 72% 29.37 in 10.0 mi WNW 16.1 mph 26.5 mph N/A   Overcast
11:53 PM 30.0 °F 18.7 °F 21.9 °F 72% 29.40 in 10.0 mi West 16.1 mph 25.3 mph N/A   Overcast